www.pogodaiklimat.ru

Погода и климат >> Архив погоды >> Сербия >> Валево


ПОГОДА в Валево

  • Прогноз погоды в Валево
  • Монитор погоды в Валево

АРХИВ ПОГОДЫ в Валево

Время (UTC), дата Ветер
(напр.,м/с)
 
Видим.   Явления Облачность Т
(С)
Тd
(С)
f
(%)
Тe
(С)
Тes
(С)
Комфортность P
(гПа)
Po
(гПа)
Тmin
(С)
Tmax
(С)
R
(мм)
R24
(мм)
S
(см)
07 13.09 З 3 50 км ясно +20.6 +13.5 64 +23 +27 комфорт 1030.1 1009.3
08 13.09 З 4 50 км ясно +21.9 +13.2 58 +25 +30 комфорт 1030.1 1009.4
09 13.09 З 3 50 км 1/1 600 м
[Cu hum]
+23.9 +13.8 53 +26 +34 жарко 1029.5 1008.9
10 13.09 З 3 50 км 3/3 600 м
[Cu hum]
+24.8 +12.4 46 +27 +33 жарко 1029.1 1008.6
11 13.09 СЗ 2 50 км 5/5 600 м
[Cu Sc]
+24.7 +11.8 44 +26 +32 жарко 1028.9 1008.4
12 13.09 З 3 50 км 5/5 600 м
[Cu Sc]
+25.4 +10.6 39 +26 +31 жарко 1028.2 1007.7
13 13.09 С 3 50 км 4/4 600 м
[Cu Sc]
+26.4 +10.5 37 +27 +31 жарко 1027.8 1007.4
14 13.09 З 2 50 км 1/1 600 м
[Cu hum]
+26.7 +10.2 36 +27 +32 жарко 1027.0 1006.7
15 13.09 З 2 50 км 1/1 600 м
[Cu hum]
+26.6 +10.2 36 +27 +29 жарко 1026.7 1006.4
16 13.09 СЗ 2 50 км ясно +25.8 +9.5 36 +26 +27 жарко 1026.8 1006.4
17 13.09 З 1 50 км ясно +24.0 +10.9 44 +25 +25 комфорт 1027.2 1006.7
18 13.09 ЮЗ 2 50 км ясно +21.1 +13.0 60 +23 +23 комфорт 1027.9 1007.1 +26.9
19 13.09 ЮЗ 2 20 км ясно +19.3 +14.0 71 +21 +21 комфорт 1028.5 1007.6
20 13.09 ЮЗ 2 20 км ясно +17.9 +13.1 73 +18 +18 1029.0 1008.0
21 13.09 ЮЗ 2 20 км ясно +17.6 +13.5 77 +18 +18 1029.0 1008.0
22 13.09 ЮЗ 2 20 км ясно +17.3 +13.5 78 +18 +18 1029.1 1008.0
23 13.09 ЮЗ 2 20 км ясно +16.4 +12.4 77 +17 +17 1028.9 1007.8
00 14.09 ЮЗ 2 20 км ясно +15.6 +11.1 75 +16 +16 1028.6 1007.5
01 14.09 ЮЗ 2 20 км ясно +15.0 +10.8 76 +15 +15 1028.5 1007.3
02 14.09 ЮЗ 2 20 км 3/0
[Ac trans]
+14.9 +11.5 80 +15 +15 1028.5 1007.3
03 14.09 ЮЗ 2 20 км 4/0
[Ac trans Ci sp]
+14.6 +11.7 83 +14 +14 1028.2 1007.0
04 14.09 З 1 20 км 6/6 1000 м
[Sc]
+14.6 +12.3 86 +15 +15 1028.6 1007.4
05 14.09 ЮЗ 1 30 км 8/8 1000 м
[Sc]
+14.9 +13.0 88 +15 +15 1028.6 1007.4
06 14.09 ЮЗ 1 30 км 8/8 1000 м
[Sc]
+17.5 +12.1 71 +19 +19 1028.8 1007.8 +14.3
07 14.09 З 3 30 км 8/8 1000 м
[Cu Sc]
+21.9 +13.8 60 +25 +26 комфорт 1028.5 1007.8
08 14.09 З 3 30 км 9/9 600 м
[Cu Sc]
+21.3 +13.2 60 +24 +24 комфорт 1028.7 1007.9
09 14.09 З 3 30 км 8/8 600 м
[Cu Sc]
+22.6 +14.3 59 +26 +28 жарко 1028.5 1007.9
10 14.09 З 3 30 км 8/8 1000 м
[Cu Sc]
+23.7 +14.7 57 +26 +28 жарко 1028.4 1007.8
11 14.09 С 2 30 км 8/8 1000 м
[Cu Sc]
+24.7 +14.0 51 +27 +29 жарко 1027.8 1007.3
12 14.09 СЗ 2 30 км 8/8 1000 м
[Cu Sc]
+24.5 +13.8 51 +27 +29 жарко 1027.1 1006.6
13 14.09 З 3 30 км 8/8 1000 м
[Cu Sc]
+26.3 +14.1 47 +29 +30 жарко 1026.4 1006.0
14 14.09 С 2 30 км 8/6 1000 м
[Cu Sc Ci fib]
+25.4 +13.0 46 +27 +29 жарко 1026.4 1005.9
15 14.09 СЗ 2 20 км 8/8 1000 м
[Cu Sc]
+25.3 +13.6 48 +27 +28 жарко 1026.2 1005.7
16 14.09 СЗ 2 20 км 6/6 1000 м
[Sc]
+24.9 +13.2 48 +27 +27 жарко 1025.8 1005.4
17 14.09 СЗ 1 20 км 6/4 1000 м
[Sc Ci fib]
+23.5 +13.2 52 +26 +26 жарко 1025.9 1005.4
18 14.09 ЮЗ 1 20 км 5/5 1000 м
[Sc]
+21.1 +14.7 67 +24 +24 комфорт 1026.3 1005.6 +26.5
19 14.09 ЮЗ 2 20 км 5/5 1000 м
[Sc]
+19.9 +14.0 69 +22 +22 комфорт 1026.7 1005.9
20 14.09 ЮЗ 2 20 км 5/5 1000 м
[Sc]
+19.4 +13.9 70 +21 +21 комфорт 1027.5 1006.7
21 14.09 З 1 20 км 5/5 1000 м
[Sc]
+19.2 +14.3 73 +22 +22 комфорт 1027.5 1006.8
22 14.09 З 1 20 км 5/5 1000 м
[Sc]
+18.3 +14.7 80 +20 +20 1027.6 1006.6
23 14.09 ЮЗ 1 20 км 5/5 1000 м
[Sc]
+17.5 +14.7 84 +19 +19 1027.9 1006.9
00 15.09 ЮЗ 1 20 км 5/5 1000 м
[Sc]
+17.5 +14.7 84 +19 +19 1018.0 1007.0
01 15.09 ЮЗ 2 20 км 6/6 1000 м
[Sc]
+17.3 +14.4 83 +18 +18 1027.8 1006.8
02 15.09 ЮЗ 1 20 км 6/6 1000 м
[Sc]
+16.8 +14.4 86 +18 +18 1027.7 1006.7
03 15.09 ЮЗ 1 20 км 6/6 1000 м
[Sc]
+15.6 +13.2 86 +16 +16 1027.6 1006.6
04 15.09 ЮЗ 1 20 км 6/6 1000 м
[Sc]
+15.3 +14.1 93 +16 +16 1027.8 1006.6
05 15.09 З 1 20 км 6/6 1000 м
[Sc]
+15.3 +14.1 93 +16 +16 1027.8 1006.6
06 15.09 штиль 0 20 км 4/4
[Sc]
+16.7 +15.4 92 +17 +18 1027.6 1006.6 +15.2
07 15.09 Ю 1 20 км ясно +19.8 +14.1 70 +23 +28 комфорт 1027.6 1006.8
08 15.09 СВ 2 20 км ясно +21.9 +15.0 65 +25 +32 комфорт 1027.5 1006.8
09 15.09 В 2 20 км ясно +23.8 +15.5 60 +27 +37 жарко 1027.3 1006.8
10 15.09 ЮВ 2 20 км ясно +24.7 +14.1 52 +27 +39 жарко 1026.7 1006.2
11 15.09 СВ 1 20 км ясно +25.8 +15.5 53 +29 +43 душно 1025.8 1005.4
12 15.09 З 2 20 км ясно +26.5 +11.4 39 +28 +38 жарко 1025.1 1004.7
13 15.09 СВ 2 20 км ясно +26.8 +11.1 37 +28 +36 жарко 1023.8 1003.7
14 15.09 С 2 20 км ясно +27.1 +11.1 37 +28 +33 жарко 1023.1 1002.8
15 15.09 В 1 20 км ясно +27.1 +11.1 37 +28 +31 жарко 1022.4 1002.2
16 15.09 СВ 2 20 км ясно +26.2 +13.2 45 +28 +29 жарко 1022.4 1002.1
17 15.09 С 1 20 км ясно +23.9 +11.8 47 +26 +26 жарко 1022.0 1001.6
18 15.09 ЮЗ 1 20 км ясно +21.3 +12.7 58 +24 +24 комфорт 1022.6 1001.9 +27.3
19 15.09 З 2 20 км ясно +19.4 +13.4 68 +21 +21 комфорт 1023.0 1002.2
20 15.09 ЮЗ 2 20 км ясно +18.3 +12.7 70 +19 +19 1023.2 1002.3
21 15.09 ЮЗ 2 20 км ясно +17.1 +12.8 76 +17 +17 1022.9 1002.0
22 15.09 ЮЗ 1 20 км ясно +16.3 +13.1 81 +17 +17 1022.7 1001.7
23 15.09 ЮЗ 2 20 км ясно +15.4 +12.5 83 +15 +15 1022.5 1001.4
00 16.09 ЮЗ 1 20 км ясно +14.7 +12.7 88 +15 +15 1022.1 1001.0
01 16.09 ЮЗ 2 20 км ясно +13.9 +12.3 90 +13 +13 1021.7 1000.6
02 16.09 З 1 20 км ясно +13.5 +11.8 89 +14 +14 1021.4 1000.3
03 16.09 штиль 0 20 км ясно +12.7 +11.2 91 +12 +12 1021.4 1000.2
04 16.09 штиль 0 20 км ясно +12.5 +11.1 91 +12 +12 1021.0 999.7
05 16.09 З 2 20 км ясно +12.7 +11.2 91 +12 +12 1020.9 999.7
06 16.09 З 1 30 км ясно +15.6 +11.4 76 +16 +18 1021.1 1000.1 +11.9
07 16.09 В 1 30 км ясно +18.7 +12.8 69 +21 +25 комфорт 1020.8 1000.0
08 16.09 В 1 30 км ясно +22.1 +13.6 59 +25 +33 комфорт 1020.4 999.9
09 16.09 ЮВ 1 30 км ясно +25.8 +13.2 46 +28 +39 жарко 1019.8 999.5
10 16.09 СВ 2 30 км ясно +26.6 +12.5 42 +28 +40 жарко 1019.4 999.2
11 16.09 СВ 2 30 км ясно +27.5 +11.8 38 +29 +40 жарко 1018.7 998.6
12 16.09 СВ 2 30 км 1/1 1000 м
[Cu hum]
+28.5 +11.4 35 +29 +39 жарко 1017.9 997.8
13 16.09 С 3 30 км 1/1 1000 м
[Cu hum]
+28.8 +12.0 35 +30 +36 жарко 1017.2 997.2
14 16.09 СВ 2 30 км ясно +28.9 +12.0 35 +30 +35 жарко 1016.5 996.5
15 16.09 СВ 3 30 км ясно +28.7 +11.4 34 +29 +31 жарко 1016.1 996.1
16 16.09 СВ 2 30 км 3/0
[Ci sp]
+27.5 +9.8 33 +28 +28 жарко 1016.1 996.0
17 16.09 З 1 30 км 3/0
[Ci sp]
+24.4 +11.7 45 +26 +26 жарко 1016.3 996.0
18 16.09 З 2 20 км ясно +21.4 +12.5 57 +24 +24 комфорт 1016.8 996.3 +29.4
19 16.09 З 2 20 км ясно +19.8 +12.8 64 +22 +22 комфорт 1017.3 996.7
20 16.09 ЮЗ 2 20 км ясно +18.7 +12.8 69 +20 +20 1017.2 996.5
21 16.09 ЮЗ 2 20 км ясно +17.9 +12.8 72 +18 +18 1017.1 996.4
22 16.09 ЮЗ 1 20 км ясно +16.8 +12.4 75 +18 +18 1017.0 996.2
23 16.09 ЮЗ 1 20 км ясно +15.9 +12.5 80 +17 +17 1016.8 995.9
00 17.09 ЮЗ 1 20 км ясно +15.0 +12.5 85 +16 +16 1016.6 995.6
01 17.09 штиль 0 20 км ясно +12.9 +11.1 89 +12 +12 1016.2 995.1
02 17.09 СВ 1 20 км ясно +11.9 +10.5 91 +12 +12 1016.2 995.0
03 17.09 штиль 0 20 км ясно +10.8 +9.7 93 +10 +10 1015.9 994.7
04 17.09 З 1 20 км ясно +11.7 +10.6 93 +11 +11 1015.9 994.7
05 17.09 штиль 0 30 км ясно +11.1 +10.0 93 +10 +10 1016.1 994.9
06 17.09 В 1 50 км 1/0
[Ci fib]
+13.6 +10.8 83 +14 +15 1015.6 994.6 +10.7
07 17.09 штиль 0 50 км 3/0
[Ci fib]
+19.3 +12.0 63 +20 +25 1015.7 995.0
08 17.09 СВ 1 50 км ясно +23.4 +12.7 51 +26 +34 жарко 1015.5 995.1
09 17.09 С 1 50 км 3/0
[Ac lent Ci fib]
+25.6 +13.2 46 +28 +37 жарко 1014.8 994.6
10 17.09 В 2 50 км 4/0
[Ci fib]
+27.4 +12.8 40 +29 +39 жарко 1014.5 994.4
11 17.09 СВ 2 50 км 3/0
[Ci fib]
+28.8 +9.4 30 +29 +40 жарко 1013.7 993.8
12 17.09 СВ 2 50 км 3/0
[Ci fib]
+29.6 +10.0 30 +30 +39 жарко 1012.8 992.9
13 17.09 Ю 2 50 км 1/0
[Ci fib]
+30.1 +10.2 29 +30 +38 жарко 1012.2 992.4
14 17.09 СВ 3 50 км 3/1 600 м
[Cu hum Ci fib]
+30.4 +8.8 26 +30 +33 жарко 1011.4 991.6
15 17.09 С 2 50 км 1/0
[Ac lent]
+30.2 +9.8 28 +30 +32 жарко 1011.1 991.3
16 17.09 С 2 30 км 4/0
[Ac trans]
+29.2 +9.8 30 +29 +29 жарко 1011.2 991.3
17 17.09 СЗ 1 30 км 4/0
[Ac trans]
+27.2 +10.3 35 +28 +28 жарко 1011.6 991.6
18 17.09 ЮЗ 1 20 км 1/0
[Ac lent]
+23.8 +12.1 48 +26 +26 жарко 1012.2 992.0 +30.6
19 17.09 З 1 20 км ясно +21.6 +12.4 56 +24 +24 комфорт 1012.7 992.3
20 17.09 З 1 20 км ясно +19.4 +11.7 61 +22 +22 комфорт 1013.3 992.7
21 17.09 З 1 20 км ясно +17.9 +12.8 72 +19 +19 1013.6 992.9
22 17.09 З 1 20 км ясно +17.2 +12.5 74 +18 +18 1013.7 992.9
23 17.09 ЮЗ 2 20 км ясно +16.9 +13.0 78 +17 +17 1013.4 992.6
00 18.09 ЮЗ 2 20 км ясно +16.3 +12.4 78 +16 +16 1013.4 992.6
01 18.09 З 1 20 км ясно +15.7 +12.1 79 +16 +16 1013.8 993.0
02 18.09 З 1 20 км 5/4 1000 м
[Sc Ci sp]
+15.9 +12.4 80 +17 +17 1015.1 994.3
03 18.09 С 1 20 км 5/5 1000 м
[Sc]
+17.0 +13.6 80 +18 +18 1016.5 995.7
04 18.09 С 1 20 км 9/9 600 м
[Sc]
+17.6 +13.2 75 +19 +19 1018.0 997.2
05 18.09 СВ 2 30 км 10/10 600 м
[Sc]
+17.5 +13.2 76 +18 +18 1019.1 998.3
06 18.09 С 3 20 км 10/10 1000 м
[Sc]
+16.8 +12.8 77 +17 +17 1021.0 1000.1 +14.9
07 18.09 С 2 15 км 10/10 600 м
[Sc]
+14.3 +11.7 84 +14 +14 1022.8 1001.6
08 18.09 С 1 15 км 10/10 600 м
[Sc]
+14.4 +11.8 84 +15 +15 1023.6 1002.4
09 18.09 Ю 1 15 км 10/10 600 м
[Sc]
+14.2 +12.0 87 +15 +15 1023.9 1002.7
10 18.09 Ю 3 20 км 10/10 1000 м
[Sc]
+14.9 +12.4 85 +14 +14 1023.6 1002.5
11 18.09 ЮЗ 2 30 км 10/10 1000 м
[Sc]
+16.1 +12.1 77 +16 +16 1023.4 1002.4
12 18.09 ЮЗ 2 30 км 10/10 1000 м
[Sc]
+17.4 +9.7 61 +18 +18 1022.9 1002.0
13 18.09 З 1 30 км 10/10 1000 м
[Sc]
+17.6 +6.2 47 +19 +19 1022.8 1001.9
14 18.09 СЗ 2 30 км 10/10 1000 м
[Sc]
+17.3 +5.8 47 +18 +18 1022.7 1001.8
15 18.09 СЗ 2 30 км 10/10 1000 м
[Sc]
+17.1 +6.2 49 +17 +17 1022.5 1001.6
16 18.09 СЗ 1 30 км 10/10 1000 м
[Sc]
+16.4 +6.2 51 +17 +17 1022.9 1001.9
17 18.09 штиль 0 20 км 10/10 1000 м
[Sc]
+15.9 +5.8 51 +16 +16 1022.9 1001.9
18 18.09 З 1 20 км 10/10 1000 м
[Sc]
+15.6 +7.0 57 +16 +16 1022.9 1001.9 +17.8
19 18.09 СЗ 1 20 км 10/10 1000 м
[Sc]
+14.8 +6.6 58 +15 +15 1023.2 1002.1
20 18.09 ЮЗ 1 20 км 10/10 1000 м
[Sc]
+14.6 +7.4 62 +15 +15 1023.5 1002.4
21 18.09 штиль 0 20 км 10/10 1000 м
[Sc]
+13.7 +8.8 72 +13 +13 1023.6 1002.4
22 18.09 З 1 20 км 10/10 1000 м
[Sc]
+13.0 +9.2 78 +13 +13 1024.0 1002.7
23 18.09 ЮЗ 1 20 км 8/8 1000 м
[Sc]
+12.7 +9.0 78 +13 +13 1023.9 1002.6
00 19.09 ЮЗ 1 20 км 8/8 1000 м
[Sc]
+11.3 +9.0 86 +11 +11 1023.9 1002.5
01 19.09 ЮЗ 1 20 км 8/8 1000 м
[Sc]
+10.7 +9.0 89 +10 +10 1023.7 1002.3
02 19.09 ЮЗ 1 20 км 6/6 1000 м
[Sc]
+10.3 +9.0 92 +10 +10 1023.7 1002.2
03 19.09 ЮЗ 1 20 км 6/6 1000 м
[Sc]
+10.0 +8.8 92 +9 +9 1023.6 1002.1
04 19.09 ЮЗ 1 20 км 6/6 1000 м
[Sc]
+10.0 +8.8 92 +9 +9 1023.5 1002.0
05 19.09 ЮЗ 1 20 км 6/6 1000 м
[Sc]
+9.8 +8.8 93 +9 +9 1023.9 1002.4
06 19.09 ЮЗ 1 20 км 9/3 1000 м
[Sc Ac trans Ci fib]
+10.4 +7.7 83 +10 +11 1024.6 1003.1 +9.6
07 19.09 Ю 1 20 км 9/3 1000 м
[Sc Ac trans Ci fib]
+12.1 +8.3 78 +12 +14 1024.5 1003.2
08 19.09 СВ 1 20 км 8/3 1000 м
[Sc Ac trans Ci fib]
+14.5 +8.6 68 +15 +19 1024.8 1003.6
09 19.09 ЮЗ 1 20 км 8/3 1000 м
[Sc Ac trans]
+15.8 +7.9 59 +17 +21 1024.7 1003.6
10 19.09 З 1 20 км 9/4 1000 м
[Sc Ac trans]
+17.0 +5.6 47 +18 +22 1024.5 1003.5
11 19.09 СВ 3 20 км 9/6 1000 м
[Sc Ac trans]
+17.7 +3.5 39 +18 +20 1024.0 1003.1
12 19.09 С 2 20 км 9/4 1000 м
[Sc Ac As]
+18.1 +2.3 35 +19 +21 1023.6 1002.6
13 19.09 С 3 20 км 9/4 1000 м
[Sc Ac As]
+18.1 +1.2 32 +18 +20 1023.2 1002.3
14 19.09 С 3 20 км 9/4 1000 м
[Sc Ac As]
+18.0 +0.9 32 +18 +19 1023.1 1002.2
15 19.09 С 4 20 км 10/4 1000 м
[Sc Ac As]
+16.9 +1.5 35 +17 +17 1023.3 1002.3
16 19.09 С 2 20 км 10/4 1000 м
[Sc Ac As]
+16.7 +2.8 39 +17 +17 1023.7 1002.7
17 19.09 З 1 20 км 10/4 1000 м
[Sc Ac As]
+16.1 +2.5 40 +17 +17 1023.9 1002.8
18 19.09 ЮЗ 1 20 км 9/4 1000 м
[Sc Ac As]
+15.6 +2.8 42 +16 +16 1024.0 1003.0 +18.4
19 19.09 ЮЗ 1 20 км 8/3 1000 м
[Sc Ac As]
+14.2 +3.8 50 +15 +15 1024.6 1003.4
20 19.09 ЮЗ 1 20 км 5/0
[Ac trans]
+13.0 +4.2 55 +13 +13 1025.5 1004.1
21 19.09 З 2 20 км 6/0
[Ac trans]
+12.3 +4.2 58 +12 +12 1025.8 1004.4
22 19.09 ЮЗ 2 20 км 3/0
[Ac trans]
+11.8 +5.3 64 +11 +11 1025.9 1004.5
23 19.09 ЮЗ 2 20 км 8/8 1000 м
[Sc]
+11.5 +5.8 68 +11 +11 1026.1 1004.8
00 20.09 З 2 20 км 3/3 1000 м
[Sc]
+10.9 +6.0 72 +10 +10 1026.2 1004.9
01 20.09 З 2 20 км 4/0
[Ac trans]
+10.1 +6.0 76 +9 +9 1026.3 1004.9
02 20.09 ЮЗ 2 20 км ясно +9.5 +6.0 79 +8 +8 1026.2 1004.8
03 20.09 ЮЗ 2 20 км ясно +8.3 +5.6 83 +6 +6 1026.4 1004.7
04 20.09 ЮЗ 2 20 км ясно +7.8 +5.1 83 +6 +6 1026.6 1004.9
05 20.09 ЮЗ 1 30 км ясно +7.6 +4.7 82 +7 +7 1026.7 1005.0
06 20.09 Ю 1 30 км ясно +9.6 +6.2 79 +9 +11 1026.8 1005.3 +7.6
07 20.09 З 3 30 км ясно +12.3 +5.6 64 +11 +14 1027.1 1005.7

 

Местоположение метеостанции Валево (Сербия): широта 44.32 долгота 19.92 высота над уровнем моря 177 м.

В архиве по умолчанию представлена погода в Валево за последнюю неделю. Архивные данные за месяц целиком и за предыдущие месяцы, начиная с января 2011 года, Вы можете получить, выбрав интересующий диапазон дат из раскрывающегося списка и нажав кнопку "Ввод!".


*Определитесь, кто Вы:
робот инопланетянин человек

Внимание! Время в таблицах - всемирное. Для получения местного времени необходимо прибавить поправку, которая равна 1 ч.

Смотрите также архив погоды в соседних городах и на ближайших метеорологических станциях:

Погода в Пожега Ужичка (Сербия) (55 км)
Погода в Лознице (Сербия) (60 км)
Погода в Белград аэропорту (Сербия) (63 км)
Погода в Златиборе (Сербия) (68 км)
Погода в Белграде (Сербия) (69 км)
Погода в Смедеревска-Паланке (Сербия) (82 км)
Погода в Крагуеваце (Сербия) (87 км)
Погода в Сремска-Митровице (Сербия) (92 км)
Погода в Кралево (Сербия) (93 км)
Погода в Тузле (Босния и Герцеговина) (100 км)

Пояснения к столбцам:

Ветер - указаны скорость ветра в м/с - средняя за 10 мин, порывы в срок и между сроками (в фигурных скобках) и направление, откуда дует ветер: С - северный, СВ - северо-восточный, В - восточный, ЮВ - юго-восточный, Ю - южный, ЮЗ - юго-западный, З - западный, СЗ - северо-западный.
Видимость - горизонтальная дальность видимости в метрах или километрах. При видимости от 1 до 10 км при отсутствии осадков обычно наблюдается дымка, при ухудшении видимости до 1 км и менее - туман. В сухую погоду видимость может ухудшаться дымом, пылью или мглою.
Явления - указаны атмосферные явления, наблюдавшиеся в срок или в последний час перед сроком; фигурными скобками обозначены явления, наблюдавшиеся между сроками (за 1-3 часа до срока); квадратными скобками обозначены град или гололедные отложения с указанием их диаметра в мм.
Облачность - указаны через наклонную черту общая и нижняя облачность в баллах и высота нижней границы облаков в метрах; квадратными скобками обозначены формы облаков: Ci - перистые, Cs - перисто-слоистые, Cc - перисто-кучевые, Ac - высококучевые, As - высокослоистые, Sc - слоисто-кучевые, Ns - слоисто-дождевые, Cu - кучевые, Cb - кучево-дождевые. Подробнее классификацию облаков см. в Атласе облаков (PDF).
T - Температура воздуха - температура, измеренная на высоте 2 м над землей.
Td - Температура точки росы - температура, при понижении до которой содержащийся в воздухе водяной пар достигнет насыщения.
f - Относительная влажность воздуха - влажноcть воздуха, измеренная на высоте 2 м над землей.
Te - Эффективная температура - температура, которую ощущает одетый по сезону человек в тени. Характеристика душности погоды. При расчете учитывается влияние влажности воздуха и скорости ветра на теплоощущения человека.
Tes - Эффективная температура на солнце - температура, которую ощущает человек, с поправкой на солнечный нагрев. Характеристика знойности погоды. Зависит от высоты солнца над горизонтом, облачности и скорости ветра. Ночью, в пасмурную погоду, а также при ветре 12 м/с и более поправка равна нулю.
P - Атмосферное давление - приведенное к уровню моря атмосферное давление.
Po - Атмосферное давление - измеренное на уровне метеостанции атмосферное давление.
Tmin - Минимальная температура - минимум температуры воздуха на высоте 2 м над землей.
Tmax - Максимальная температура - максимум температуры воздуха на высоте 2 м над землей.
R - Количество осадков - Количество выпавших осадков за период времени, мм. При наведении курсора мыши на число - период времени, за который выпало указанное количество осадков.
R24 - Количество осадков - Количество выпавших осадков за 24 часа, мм.
S - Снежный покров - Высота снежного покрова, см. При наведении курсора мыши на число - состояние снежного покрова и степень покрытия местности в баллах.